Tracking 25710 objects as of 7-Jul-2022
HD Live streaming from Space Station
objects crossing your sky now

FENGYUN 1C DEB

Track FENGYUN 1C DEB now!
10-day predictions


NORAD ID: 37926
Int'l Code: 1999-025EPB
Perigee: 810.6 km
Apogee: 900.0 km
Inclination: 98.8 °
Period: 101.9 minutes
Semi major axis: 7226 km
RCS: 0.02 m2 (small)
Launch date: May 10, 1999
Source: People's Republic of China (PRC)
Launch site: Taiyaun Space Center, China (TSC)

Note: This is SATELLITE DEBRIS
aabbcc
Your satellite tracking list
Your tracking list is empty




NASA's NSSDC Master Catalog

Two Line Element Set (TLE):
1 37926U 99025EPB 22187.11658144  .00001284  00000-0  69536-3 0  9999
2 37926  98.8193 249.3104 0061888 219.4277 201.8711 14.13289049564751
Source of the keplerian elements: AFSPC